Home > Weather > Youngstown > Past weeks

Flag for USA Past Weather in Youngstown, Ohio, USA — Yesterday and Last 2 Weeks

Now
62 °F

Passing clouds.


Feels Like: 62 °F
Forecast: 62 / 91 °F
Wind: 5 mph from East

Location: Youngstown-Warren Regional Airport

Current Time: Aug 27, 2016 at 6:14:36 AM

Latest Report: Aug 27, 2016 at 4:51 AM


Visibility: 10 mi

Pressure: 30.16 "Hg

Humidity: 93%

Dew Point: 60 °F

Location of YoungstownLocation

Past Weather in Youngstown — Graph

°F

Youngstown Temperature Yesterday

Maximum temperature yesterday: 84 °F (at 4:51 PM)
Minimum temperature yesterday: 65 °F (at 11:51 PM)
Average temperature yesterday: 75 °F

High & Low Weather Summary for the Past Weeks

 TemperatureHumidityPressure
High89 °F (Aug 12, 12:51 PM)100% (Aug 17, 6:51 AM)30.32 "Hg (Aug 17, 6:51 AM)
Low53 °F (Aug 23, 5:51 AM)40% (Aug 24, 3:51 PM)29.69 "Hg (Aug 21, 1:51 AM)
Average73 °F78%30.03 "Hg
* Reported Aug 12 4:51 AM — Aug 27 4:51 AM, Youngstown, Weather by CustomWeather, © 2016

Note: Actual official high and low records may vary slightly from our data, if they occured in-between our weather recording intervals... More about our weather records

Advertising

Youngstown Weather History for the Previous 24 Hours

Scroll right to see more
 ConditionsComfort  
Time TempWeatherWind HumidityBarometerVisibility
4:51 AM
Sat, Aug 27
62 °FPassing clouds.5 mph93%30.16 "Hg10 mi
3:51 AM62 °FPassing clouds.5 mph93%30.16 "Hg10 mi
2:51 AM63 °FPassing clouds.6 mph87%30.15 "Hg10 mi
1:51 AM64 °FPassing clouds.7 mph87%30.15 "Hg10 mi
12:51 AM64 °FPassing clouds.7 mph87%30.15 "Hg10 mi
11:51 PM
Fri, Aug 26
65 °FPassing clouds.5 mph91%30.17 "Hg10 mi
10:51 PM69 °FPassing clouds.5 mph79%30.16 "Hg10 mi
9:51 PM71 °FPassing clouds.5 mph73%30.15 "Hg10 mi
8:51 PM73 °FScattered clouds.6 mph69%30.13 "Hg10 mi
7:51 PM75 °FPassing clouds.8 mph66%30.12 "Hg10 mi
6:51 PM83 °FPassing clouds.5 mph48%30.11 "Hg10 mi
5:51 PM84 °FPassing clouds.7 mph46%30.10 "Hg10 mi
4:51 PM84 °FScattered clouds.N/A45%30.11 "Hg10 mi
3:51 PM83 °FPartly sunny.5 mph46%30.12 "Hg10 mi
2:51 PM83 °FPartly sunny.5 mph51%30.12 "Hg10 mi
1:51 PM83 °FPartly sunny.8 mph55%30.13 "Hg10 mi
12:51 PM80 °FScattered clouds.7 mph54%30.14 "Hg10 mi
11:51 AM80 °FScattered clouds.7 mph58%30.14 "Hg10 mi
10:51 AM77 °FPartly sunny.5 mph66%30.14 "Hg10 mi
9:51 AM75 °FPartly sunny.6 mph79%30.13 "Hg10 mi
8:51 AM73 °FFog.6 mph90%30.12 "Hg6 mi
7:51 AM70 °FFog.3 mph93%30.10 "Hg5 mi
6:51 AM69 °FFog.No wind96%30.09 "Hg5 mi
Weather by CustomWeather, © 2016

See weather overviewHow to use our weather pages